Torna al catalogo

STARLINK-30483

AttivoComunicazioniVLEO
NORAD 57914·PAYLOAD·🇺🇸 United States

Lanciato Sep 24, 2023 da Cape Canaveral Space Force Station

Loading…

Prossimi Passaggi (prossime 24 ore)

TLE

AggiornatoSource: CelesTrak SupGP

Epoca: Sep 14, 2026, 20:48 UTC

1 57914C 23147B   26257.86715278  .00014242  00000+0  51571-3 0  2570
2 57914  43.0022 191.2561 0001345 262.7288  14.5962 15.27580596    18

Traccia STARLINK-30483 in tempo reale con AllMySat

Download on the App Store